STARLINK-11237 [DTC] (60934 NORAD) Tracking and Keplerian Element Data

This shows tracking and keplerian element data for the satellite.

Feedback or suggestion? Click here.




ElementValue
Catalog60934
NameSTARLINK-11237 [DTC]
Epoch Orbit608
Epoch Day286.91668981
Epoch Year2024
RAAN348.7281
Inclination53.1585
Eccentricity0.0001139
Argument of Perigee97.2731
Mean Anonmoly126.1961
Mean Motion15.69722674
Decay Rate-0.0003267
L11 60934U 24155L 24286.91668981 -.00032670 00000+0 -26572-3 0 9993
L22 60934 53.1585 348.7281 0001139 97.2731 126.1961 15.69722674 6086



Live tracking and technical data element details for STARLINK-11237 [DTC] (NORAD 60934). STARLINK-11237 [DTC] can be tracked NOW for your location showing map with azimuth and elevation plus other details from your city location.







IsCatalogInMostPopularTable: catalog: 60934, numindb: 10
Update: records affected: 1



GetName: 60934 STARLINK-11237 [DTC]

Hit Count: updated at: Wed, 04 Dec 2024 19:27:03 GMT